This is the latest recevied weather packets stored in our database for station/object R2BLN-13. If no packets are shown the sender has not sent any weather packets the latest 10 day(s).
| Time | Temp. | Humidity | Pressure | Rain* | Wind** | Luminosity | Snow |
|---|---|---|---|---|---|---|---|
| 1787809878 | 18.33° C | 62% | 1001.9 hPa | - | - | - | - |
| 1787809278 | 17.78° C | 62% | 1001.9 hPa | - | - | - | - |
| 1787808678 | 17.22° C | 67% | 1001.9 hPa | - | - | - | - |
| 1787808078 | 16.67° C | 67% | 1001.9 hPa | - | - | - | - |
| 1787807478 | 16.11° C | 70% | 1001.9 hPa | - | - | - | - |
| 1787806878 | 15° C | 72% | 1001.9 hPa | - | - | - | - |
| 1787806278 | 14.44° C | 73% | 1001.8 hPa | - | - | - | - |
| 1787805678 | 14.44° C | 74% | 1001.8 hPa | - | - | - | - |
| 1787805078 | 14.44° C | 74% | 1001.8 hPa | - | - | - | - |
| 1787804478 | 13.89° C | 74% | 1001.8 hPa | - | - | - | - |
| 1787803878 | 13.89° C | 75% | 1001.9 hPa | - | - | - | - |
| 1787803269 | 13.33° C | 75% | 1001.8 hPa | - | - | - | - |
| 1787802667 | 13.33° C | 76% | 1001.8 hPa | - | - | - | - |
| 1787802049 | 12.78° C | 76% | 1001.7 hPa | - | - | - | - |
| 1787801448 | 12.78° C | 76% | 1001.6 hPa | - | - | - | - |
| 1787800848 | 12.78° C | 76% | 1001.4 hPa | - | - | - | - |
| 1787800248 | 12.78° C | 76% | 1001.5 hPa | - | - | - | - |
| 1787799648 | 12.78° C | 76% | 1001.5 hPa | - | - | - | - |
| 1787799048 | 12.22° C | 76% | 1001.4 hPa | - | - | - | - |
| 1787798448 | 12.22° C | 76% | 1001.2 hPa | - | - | - | - |
| 1787797848 | 12.22° C | 76% | 1001.1 hPa | - | - | - | - |
| 1787797248 | 12.22° C | 76% | 1001.1 hPa | - | - | - | - |
| 1787796648 | 12.22° C | 75% | 1001.1 hPa | - | - | - | - |
| 1787796048 | 12.22° C | 76% | 1001.1 hPa | - | - | - | - |
| 1787795448 | 12.22° C | 75% | 1001.1 hPa | - | - | - | - |
* Rain since midnight (hover to see other rain measurements)
** Current wind speed in m/s (hover to see current wind gust speed)